SCP
0 0 0 0 0 0 0 0 0 0 0 0 0 0 0 1 1 1 1 1 1 1 1 1 1 1 1 1 1 2 2 3 4 4 4 3 3 3 2 2 2 2 2 1
0 0 0 0 0 0 0 0 0 0 0 0 0 0 0 1 1 1 1 1 1 1 1 1 1 1 1 1 1 2 3 4 4 5 4 4 4 3 3 3 3 2 2 1
0 0 0 0 0 0 0 0 0 0 0 0 0 0 0 1 1 1 1 1 1 1 1 1 1 1 1 1 1 2 3 4 4 5 5 5 5 4 3 3 3 3 2 2
0 0 0 0 0 0 0 0 0 0 0 1 1 0 0 1 1 1 1 1 1 1 1 1 1 1 1 1 1 2 2 3 3 4 5 5 5 4 3 3 3 3 2 2
0 0 0 0 0 0 0 0 0 0 0 0 0 0 0 1 1 1 1 1 1 1 1 1 1 1 1 1 1 2 2 2 3 3 4 4 4 3 3 3 3 3 3 3
0 0 0 0 0 0 0 0 0 0 0 0 0 0 0 0 1 1 1 1 1 1 1 1 1 1 2 2 2 3 3 3 3 3 3 3 3 3 3 3 3 3 3 3
0 0 0 0 0 0 0 0 0 0 0 0 0 0 0 0 0 0 1 1 1 1 2 2 2 2 3 4 4 4 5 5 4 3 3 3 3 4 4 3 3 3 3 2
0 0 0 0 0 0 0 0 0 0 0 0 0 0 1 1 0 0 1 1 1 2 2 3 3 4 4 5 4 4 5 5 4 3 3 3 3 3 3 3 3 3 2 2
0 0 0 0 0 0 0 0 0 0 0 0 0 0 0 1 1 1 1 1 2 3 3 4 4 5 5 4 3 3 4 4 4 3 3 3 3 3 2 2 2 2 2 2
0 0 0 0 0 0 0 0 0 0 0 0 0 0 1 1 1 1 1 2 3 4 4 4 4 5 4 3 3 3 3 3 3 3 3 3 3 3 2 2 2 2 2 2
0 0 0 0 0 0 0 0 0 0 0 0 0 1 1 1 2 2 2 2 3 4 3 3 3 3 3 2 2 3 2 3 3 3 3 3 3 3 3 3 2 2 3 3
0 0 0 0 0 0 0 0 0 0 0 0 0 1 1 2 2 2 2 2 3 3 3 3 2 2 2 3 3 3 3 3 3 3 3 3 3 3 3 3 3 4 4 4
0 0 0 0 0 0 0 0 0 0 0 0 0 1 2 2 2 2 2 2 3 3 3 3 3 3 3 4 5 5 4 4 4 4 3 3 3 3 3 4 4 5 5 5
0 0 0 0 0 0 0 0 0 0 0 0 0 1 1 2 2 2 2 2 2 3 3 3 4 4 5 6 7 7 5 4 4 5 4 4 3 3 3 4 4 5 5 5
0 0 0 0 0 0 0 0 0 0 0 0 0 1 1 2 3 2 2 2 2 2 3 3 4 5 6 7 7 7 6 5 5 6 6 5 4 3 3 4 4 4 4 4
1 1 0 0 0 0 0 0 0 0 0 0 0 1 2 2 3 2 2 1 1 2 2 3 4 5 6 6 7 7 7 7 7 7 6 5 4 4 4 4 4 4 3 3
1 1 1 0 0 0 0 0 0 0 0 0 1 1 2 2 2 2 2 1 2 2 2 3 4 5 6 7 9 10 10 10 9 8 6 4 3 3 4 4 4 3 3 3
1 1 1 0 0 0 0 1 1 1 1 1 1 1 2 2 2 1 1 2 2 3 3 4 4 5 6 7 9 12 12 10 9 7 5 3 3 3 4 4 4 3 3 3
1 1 0 0 0 0 0 1 1 1 1 1 1 2 2 2 1 1 1 2 3 3 4 4 4 5 6 7 7 9 8 7 6 5 4 3 3 3 3 4 4 4 3 3
1 1 0 0 0 0 1 1 1 1 1 1 1 2 2 2 1 1 2 3 3 4 5 6 7 8 8 7 6 5 4 4 4 3 3 3 3 3 4 4 5 4 4 4
1 1 0 0 0 0 1 1 1 1 2 2 2 3 3 2 2 2 3 4 4 5 6 8 10 10 9 7 6 5 4 3 3 3 3 4 4 4 4 5 5 5 5 4
1 1 1 0 1 1 1 2 2 2 2 3 3 3 3 3 2 3 4 5 5 5 6 7 8 8 7 6 5 4 4 4 3 3 4 4 4 4 4 4 5 5 5 5
2 1 1 1 1 2 2 2 2 2 3 3 3 3 3 3 3 3 3 4 6 6 6 6 7 7 8 9 8 6 5 4 4 4 4 4 4 4 4 4 4 5 5 5
2 2 2 2 2 2 2 2 2 2 3 3 3 3 3 3 3 4 4 4 6 6 7 7 8 8 10 11 10 7 5 5 5 5 5 5 4 4 4 4 4 4 5 5
3 3 3 2 2 2 2 2 2 3 3 4 4 4 5 5 5 5 5 5 6 7 7 7 8 7 7 7 7 6 5 7 8 8 7 6 5 4 4 4 4 4 4 4
4 4 3 2 2 2 2 2 2 2 3 5 6 6 6 7 7 7 6 5 6 6 6 7 7 6 4 4 4 5 6 9 11 11 8 6 5 4 4 4 4 3 3 4
Wind_Speed
7 10 10 10 8 3 5 7 7 6 5 5 5 5 7 9 9 9 9 10 10 10 10 9 10 9 9 8 8 8 8 7 6 5 5 5 4 4 3 3 3 3 3 3
9 11 6 5 6 6 8 8 7 7 5 4 4 4 5 8 9 9 9 10 10 10 10 10 10 10 9 9 9 9 9 8 8 6 4 4 3 3 3 3 3 4 4 4
12 6 7 9 10 10 9 8 8 7 7 6 6 6 7 7 8 8 8 9 10 10 11 11 11 10 10 10 9 8 9 8 8 7 5 4 4 4 4 5 4 4 4 4
8 7 9 11 11 11 9 5 5 7 8 6 6 5 7 8 8 9 9 10 10 10 10 10 10 10 10 10 9 9 9 9 8 8 8 8 6 5 4 3 3 3 4 4
8 9 11 12 10 10 4 6 6 6 7 6 6 7 5 8 8 9 10 10 10 9 9 10 10 10 10 10 10 9 9 9 8 8 8 7 7 5 4 3 3 3 3 4
6 7 8 7 6 7 8 8 6 7 8 8 6 7 4 5 5 5 7 8 9 8 9 9 9 9 9 9 9 9 9 9 9 9 8 8 7 6 5 4 4 4 3 3
10 10 7 8 10 10 11 10 8 9 8 6 4 6 2 2 1 2 3 5 6 7 8 8 9 9 9 9 9 9 10 9 9 9 8 8 8 7 6 5 5 5 3 3
13 13 12 10 11 11 13 13 8 7 7 6 6 6 2 3 2 2 2 3 5 6 7 7 8 9 9 10 10 10 9 9 9 8 8 7 7 6 5 5 5 4 3 3
11 10 10 8 7 9 12 11 7 6 4 5 6 4 4 4 4 3 3 3 4 4 6 7 7 8 9 9 10 10 9 9 8 8 7 6 6 6 5 4 5 4 3 3
6 9 11 9 9 5 7 9 7 8 6 8 7 7 4 6 4 4 3 3 3 3 4 5 6 7 7 8 8 8 8 8 7 7 6 5 6 6 5 4 4 3 3 2
7 8 11 11 12 12 10 10 8 7 7 7 6 4 3 2 3 3 3 3 3 3 4 4 4 5 6 6 7 8 8 8 7 6 6 5 5 5 4 4 3 3 3 2
8 7 9 10 5 5 10 11 11 9 7 7 6 3 6 3 3 2 2 2 2 2 2 3 4 4 5 6 7 7 7 7 7 6 5 5 4 4 4 3 3 3 2 2
7 7 9 11 10 9 10 9 10 8 7 8 8 4 7 5 3 2 2 2 2 2 3 4 4 4 5 5 6 7 7 7 7 6 6 5 4 4 3 3 3 3 3 2
6 7 9 9 8 12 12 11 11 11 9 9 9 4 5 4 3 2 2 2 2 3 3 4 4 4 4 5 6 6 6 6 6 6 6 5 4 4 3 3 3 3 2 2
7 8 7 4 3 8 10 12 12 13 11 10 7 7 5 3 2 1 2 2 2 3 3 4 4 5 5 5 6 6 6 6 6 6 5 4 4 4 3 3 3 3 3 2
6 6 8 7 7 8 9 10 12 12 11 10 8 5 3 2 2 2 2 2 2 3 3 4 5 5 5 5 5 6 6 6 6 6 6 5 5 5 4 4 4 4 3 3
8 7 9 9 9 9 11 11 11 10 9 10 9 4 4 3 2 2 2 3 2 3 4 4 4 5 4 4 4 5 6 6 6 6 6 6 5 5 5 5 4 4 3 3
6 8 7 7 9 13 4 4 6 8 7 7 5 4 4 3 2 2 2 3 3 3 4 4 4 5 4 4 5 5 5 6 6 6 5 5 5 5 5 5 5 4 3 3
6 8 8 8 11 8 5 5 6 8 7 5 5 5 4 3 3 3 3 2 3 3 4 4 4 4 4 4 5 5 5 5 5 5 4 4 5 5 5 5 5 4 4 4
7 7 9 9 11 10 6 6 3 6 8 5 5 5 5 5 6 3 4 3 3 4 4 4 4 5 5 5 5 5 6 5 4 4 3 4 4 4 4 4 4 4 4 4
11 9 11 11 10 5 4 4 6 9 2 3 4 4 4 3 2 3 3 3 4 4 5 5 5 5 5 6 6 6 6 5 4 4 4 4 4 4 4 4 4 4 4 4
8 9 10 10 11 5 3 5 4 3 3 1 2 2 2 2 2 3 4 4 5 5 5 6 5 5 5 5 6 7 6 5 4 4 5 5 4 4 4 4 4 4 4 5
5 3 3 3 1 5 3 1 2 2 1 1 1 2 2 2 2 3 4 4 5 5 5 5 6 6 5 4 4 6 5 4 5 5 5 5 5 4 4 4 4 3 3 3
4 2 3 3 3 3 2 1 1 1 1 1 1 2 3 2 2 3 4 4 5 5 5 5 5 5 5 4 4 4 4 4 5 5 5 5 5 5 4 3 3 2 2 2
2 3 4 4 3 2 2 0 1 1 1 2 2 3 3 3 3 3 4 4 5 5 5 5 5 5 5 5 5 4 3 4 5 6 5 5 5 5 5 5 4 4 4 3
4 4 4 2 2 2 1 1 2 1 1 2 2 2 3 3 4 5 5 5 5 5 5 5 5 6 5 5 4 3 3 3 4 5 5 4 4 4 4 5 6 11 9 9
Wind_Direction
193 207 200 194 215 227 192 190 174 147 145 197 190 170 163 176 191 189 186 188 193 199 194 192 194 198 197 197 199 202 205 196 199 199 205 204 204 205 207 212 215 226 233 227
193 207 185 170 183 192 191 192 173 149 155 212 195 186 172 183 199 198 196 195 198 197 196 195 197 199 199 199 205 207 206 200 201 201 209 218 221 220 215 221 212 227 227 230
208 155 160 182 184 194 200 204 185 167 166 201 216 202 187 183 199 202 207 206 205 203 200 196 198 202 203 202 205 207 206 202 206 204 205 204 205 223 214 213 210 220 225 229
202 157 181 192 194 203 194 197 188 181 202 191 229 222 179 183 191 203 208 209 209 207 206 199 198 202 206 205 202 205 203 203 203 205 213 212 215 223 226 232 219 210 217 225
181 180 187 197 195 212 181 164 192 206 222 222 211 251 168 177 199 202 204 208 210 206 205 203 202 202 205 202 200 198 197 200 201 207 211 217 226 227 227 230 223 231 219 225
162 179 204 195 176 188 153 160 172 213 229 224 220 244 194 168 203 197 190 199 206 206 202 201 199 197 201 200 198 195 191 196 200 206 211 219 230 232 233 229 231 228 221 221
179 182 180 184 175 177 194 194 195 204 213 214 185 236 207 119 167 222 197 191 196 199 200 195 194 194 197 199 198 196 189 195 200 205 210 215 223 223 226 230 230 240 239 226
188 185 183 191 201 190 206 218 229 224 211 189 178 227 145 120 140 176 192 179 177 187 194 193 193 192 193 195 195 196 192 195 198 202 209 213 214 219 224 223 239 239 248 249
196 180 165 189 209 213 200 222 245 252 242 231 183 189 175 169 166 157 163 164 163 175 184 189 190 191 190 192 192 195 190 192 193 197 202 205 209 223 233 225 228 240 239 241
209 182 168 173 186 212 232 205 209 233 229 226 202 206 186 162 161 151 158 160 162 170 177 181 187 189 191 189 188 188 184 182 186 190 198 194 200 211 223 231 227 242 244 249
210 199 171 184 203 189 190 203 220 224 245 247 218 177 96 149 143 149 138 130 151 166 170 168 173 177 184 182 176 177 176 177 182 190 192 197 193 199 207 214 219 225 233 223
208 215 185 186 181 242 214 208 210 217 216 252 264 134 99 120 137 137 120 103 109 129 141 144 151 157 164 166 164 165 167 173 176 176 180 185 187 195 196 198 203 208 211 201
187 209 186 182 185 195 209 210 218 229 222 232 243 165 122 135 148 144 124 105 105 112 121 124 134 141 145 150 157 158 160 163 163 163 166 165 172 178 184 191 187 184 179 173
225 219 231 209 192 186 197 201 211 221 227 225 238 220 169 167 181 168 145 136 129 124 126 126 126 128 134 140 146 147 145 147 151 153 150 150 156 162 163 160 157 158 163 166
223 213 218 236 189 196 202 202 206 222 238 245 230 226 213 199 204 166 155 158 152 137 133 135 130 124 127 130 133 135 136 140 144 144 141 143 144 144 143 140 136 136 144 149
214 219 200 201 200 205 206 208 212 221 230 241 242 227 191 193 187 166 173 174 173 159 143 137 130 124 123 127 131 133 136 141 143 142 139 139 143 140 140 136 132 131 131 126
193 204 210 203 195 207 214 211 213 214 223 233 236 225 193 198 195 195 188 185 183 158 139 131 126 125 123 115 117 129 133 136 139 142 142 144 148 143 142 140 133 129 127 122
207 211 217 204 193 221 194 191 222 219 219 236 244 212 205 209 201 204 197 182 167 149 137 132 132 125 118 113 116 124 129 135 138 142 147 147 147 149 147 139 134 132 132 129
217 215 221 216 211 210 173 187 210 215 213 217 218 198 188 166 180 159 113 128 146 137 129 131 130 123 115 111 119 124 124 128 132 134 141 146 147 148 149 142 140 138 135 130
189 223 227 221 229 219 176 152 190 228 217 185 194 195 192 197 222 143 100 114 121 116 123 129 126 121 117 115 120 121 116 114 116 125 135 135 138 143 141 137 137 133 134 134
188 200 221 222 227 215 106 140 192 219 184 135 186 197 210 224 325 75 100 101 111 115 118 119 120 116 115 122 122 117 108 105 106 114 115 120 130 133 129 125 126 130 130 121
208 202 210 223 229 198 115 176 211 29 42 106 158 187 183 113 106 101 101 106 110 117 119 119 116 109 112 119 123 119 111 109 113 118 117 115 116 115 115 116 117 122 133 135
235 269 241 243 236 75 91 78 35 355 16 88 107 121 118 126 126 108 105 105 106 110 111 114 113 110 105 107 113 111 110 118 123 122 119 116 111 107 113 120 123 133 142 141
173 256 228 197 161 133 122 75 29 355 11 86 100 109 118 123 112 104 106 104 104 102 103 104 106 104 102 101 98 102 116 122 123 120 119 120 117 110 98 98 103 101 111 127
186 201 208 203 179 182 169 10 6 44 69 71 75 89 101 112 119 118 114 109 110 105 101 104 106 103 96 89 86 91 107 124 125 121 119 123 117 108 95 78 53 65 59 40
223 233 242 228 158 242 145 39 26 56 71 72 80 87 94 106 117 114 110 113 115 114 110 106 102 99 97 96 94 95 102 124 134 130 129 128 125 122 120 113 91 57 59 62